Weather in Borovoye

Russia / Novosibirsk Oblast     54°41′38″N   82°38′07″E
temp.,
°C
wind,
m/s
gust,
m/s
humid.,
%
clouds,
%
prec.,
mm/h
press.,
hPa
HPBL,
m
28 february, sun
sun2801:00−28ssw449563 0.0 103932
04:00−29ssw349563 0.0 103820
07:00−28s349456 0.0 103926
10:00−27sse349368 0.0 103772
13:00−22se478963 0.0 1034301
16:00−17sse588692 0.0 1031497
19:00−14se479596 0.1 1028254
22:00−12se5994100 0.6 1025300
1 march, mon
mon101:00−11se5994100 0.9 1021319
04:00−10se51092100 0.3 1018301
07:00−7se51095100 1.3 1014383
10:00−6sse61195100 2.0 1011583
13:00−2sse61097100 4.7 1009521
16:00+1sw81498100 2.8 1007584
19:000sw71298100 3.8 1007503
22:00−1wsw71397100 1.4 1007562
2 march, tue
tue201:00−9n4696100 2.8 1008136
04:00−11n3496100 0.3 101182
07:00−13n339699 0.8 101457
10:00−14nnw229592 0.2 101689
13:00−12w238995 0.3 1018287
16:00−10wsw1386100 0.1 1018411
19:00−13wsw2294100 0.1 101820
22:00−15ssw1295100 0.0 101820
3 march, wed
wed301:00−14sse1195100 0.1 101720
04:00−14se1296100 0.3 101521
07:00−13ese1296100 0.6 101533
10:00−12ene0194100 0.4 101586
13:00−11w2289100 0.6 1016309
16:00−10wsw3589100 0.1 1018511
19:00−11wsw479399 0.3 1020148
22:00−15wsw449475 0.0 102335
4 march, thu
thu401:00−16sw459684 0.1 102480
04:00−19ssw449679 0.0 102534
07:00−20s459473 0.0 102646
10:00−17sse489192 0.0 1026222
13:00−13sse588986 0.0 1025342
16:00−9sse5888100 0.0 1023524
19:00−9sse4691100 0.0 1021115
22:00−10se4791100 0.0 101992